Location: Hilton Head Island
(32.2163°N, 80.7526°W)
Time: 17:03:18
(UTC-04:00)

Explorer 7 - Pass Details

Date: 17 February 2026
Orbit: 430 x 542 km, 50.2° (Epoch: 8 March)

Event Time Altitude Azimuth Distance (km) Brightness Sun altitude
Rises 13:15:23 0° 184° (S) 2,379 10.8 45.0°
Reaches altitude 10° 13:18:27 10° 153° (SSE) 1,527 9.8 44.9°
Maximum altitude 13:19:58 12° 127° (SE) 1,395 9.3 44.8°
Drops below altitude 10° 13:21:34 10° 99° (E) 1,561 9.2 44.7°
Sets 13:24:39 0° 70° (ENE) 2,442 9.9 44.5°
